Regional Weather Roundup
Issued by NWS

Home | Current Version | Previous Version | Graphics & Text | Print | Product List | Glossary On
Versions: 1 2 3 4 5 6 7 8 9 10 11 12 13 14 15 16 17 18 19 20 21 22 23 24 25 26 27 28 29 30 31 32 33 34 35 36 37 38 39 40 41 42 43 44 45 46 47 48 49 50
150
ASUS45 KBOU 310707
RWRCO

WEATHER ROUNDUP FOR COLORADO
NATIONAL WEATHER SERVICE DENVER/BOULDER CO
100 AM MDT TUE MAY 31 2016

NOTE: "FAIR" INDICATES FEW OR NO CLOUDS BELOW 12000 FEET WITH NO
SIGNIFICANT WEATHER AND/OR OBSTRUCTIONS TO VISIBILITY.

COZ001>005-013-030-031-310800-
...NORTHWEST COLORADO...

CITY           SKY/WX    TMP DP  RH WIND       PRES   REMARKS
CRAIG          FAIR      49  35  58 CALM      30.12F
HAYDEN         FAIR      48  30  49 SW6       30.12F
MEEKER         FAIR      47  37  68 CALM      30.13F
MOUNT WERNER   NOT AVBL
STEAMBOAT SPGS FAIR      48  36  61 E8        30.14S
WALDEN         NOT AVBL
$$

COZ006>008-011-310800-
...WEST CENTRAL VALLEYS...

CITY           SKY/WX    TMP DP  RH WIND       PRES   REMARKS
GRAND JUNCTION FAIR      59  34  39 SE8       30.00F
MONTROSE       FAIR      54  33  45 SE10      30.08F
EAGLE          FAIR      45  36  70 CALM      30.18S
RIFLE          FAIR      47  34  60 NE6       30.09F
DELTA          FAIR      57  34  42 E5        30.05S
NUCLA          FAIR      54  32  43 CALM      30.10S
$$

COZ017>023-064>068-310800-
...SOUTHWEST COLORADO...

CITY           SKY/WX    TMP DP  RH WIND       PRES   REMARKS
DURANGO        FAIR      51  26  37 CALM      30.07S
CORTEZ         FAIR      46  29  51 E6        30.04F
PAGOSA SPRINGS FAIR      48  26  43 CALM      30.14S
TELLURIDE      FAIR      42  30  62 SE6       30.26S
WOLF CREEK PAS FAIR      37  19  48 NE6       30.40F
$$

COZ009-010-012-014-032>034-037-058>063-310800-
...CENTRAL COLORADO...

CITY           SKY/WX    TMP DP  RH WIND       PRES   REMARKS
ASPEN          FAIR      40  33  76 SW7       30.19F
BUENA VISTA    FAIR      46  32  59 N5        30.19S
COPPER MTN     NOT AVBL
BERTHOUD PASS  FAIR      30  21  69 NW23      30.39S WCI  17
COTTONWOOD PAS FAIR      46  25  42 W10G16    30.27F
GUNNISON       NOT AVBL
KREMMLING      FAIR      36  34  93 CALM      30.21F
LEADVILLE      FAIR      29  24  82 NE7       30.28F WCI  22
MONARCH PASS   FAIR      36  27  69 NW8       30.47F
SALIDA         FAIR      47  31  53 W6        30.25S
SUNLIGHT       FAIR      45  23  42 NW3       30.36S
WILKERSON PASS FAIR      37  23  56 N8        30.37F
$$

COZ069>075-310800-
...SAN LUIS VALLEY/SANGRE DE CRISTO MOUNTAINS...

CITY           SKY/WX    TMP DP  RH WIND       PRES   REMARKS
ALAMOSA        FAIR      43  35  73 NE5       30.13F
LA VETA PASS   FAIR      43  32  65 NE10      30.29F
SAGUACHE       FAIR      45  32  61 NW15      30.17S
$$

COZ035-036-038>040-310800-
...NORTHERN COLORADO FRONT RANGE...

CITY           SKY/WX    TMP DP  RH WIND       PRES   REMARKS
DENVER INTL AP MOCLDY    53  43  68 N18       30.08R
DMNS CITY PARK   N/A     56  42  60 N9G16     30.08R
AURORA         PTCLDY    51  42  71 S8        30.06S
FRONT RANGE AP NOT AVBL
ERIE MUNI ARPT MOCLDY    54  47  76 N23G30    30.11R
BOULDER MUN AP FAIR      54  45  71 N18G26    30.12R
CENTENNIAL     FAIR      50  40  68 SE3       30.07S
BROOMFIELD     FAIR      54  43  66 N24G32    30.11R
FORT COLLINS   FAIR      52  43  71 N15       30.14R
LONGMONT       FAIR      56  46  69 N16G25    30.14R
$$

COZ041-046-047-076>085-087-088-310800-
...PIKES PEAK/PALMER DIVIDE AND SOUTHERN FOOTHILLS...

CITY           SKY/WX    TMP DP  RH WIND       PRES   REMARKS
COLO. SPRINGS  FAIR      52  38  58 NW6       30.11R
A. F. ACADEMY  FAIR      43  37  81 NE9       30.12S
SCHRIEVER AFB  NOT AVBL
ELLICOTT       NOT AVBL
FALCON         FAIR      49  37  65 NW5       30.13F
FORT CARSON    FAIR      51  39  62 NW7       30.07S
LIMON          FAIR      46  44  93 NW5       30.03F
MONUMENT HILL  FAIR      43  36  75 S5        30.15F
TRINIDAD       FAIR      57  41  55 CALM      30.05F
$$

COZ042>045-048>051-090-091-310800-
...NORTHEAST COLORADO...

CITY           SKY/WX    TMP DP  RH WIND       PRES   REMARKS
GREELEY ARPT   FAIR      52  43  71 N25       30.09R
AKRON          CLOUDY    53  49  86 N21G30    30.04R
BURLINGTON     FAIR      54  47  77 NE9       29.97F
WRAY           FAIR      54  52  94 NW7       29.98F
STERLING       FAIR      54  50  87 NE15      30.04S
HOLYOKE        FAIR      55  52  88 NE10      30.03S
FORT MORGAN    FAIR      53  46  76 N21G26    30.06S
$$

COZ086-089-092>099-310800-
...SOUTHEAST COLORADO...

CITY           SKY/WX    TMP DP  RH WIND       PRES   REMARKS
PUEBLO         FAIR      57  46  66 W5        30.02R
LA JUNTA       FAIR      61  47  59 SE7       29.98R
LAMAR          FAIR      59  49  69 E9        29.95F
SPRINGFIELD      N/A     59  46  62 N22G29    29.98R
$$




USA.gov is the U.S. government's official web portal to all federal, state and local government web resources and services.